QPF
0.05 0.05 0.06 0.05 0.05 0.05 0.05 0.05 0.06 0.06 0.06 0.06 0.09 0.10 0.10 0.09 0.08 0.05 0.03 0.02 0.02 0.02 0.02 0.04 0.05 0.05 0.06 0.06 0.05 0.03 0.01 0.01 0.01 0.01 0.01 0.01 0.01 0.02 0.03 0.03 0.04 0.03 0.02
0.04 0.04 0.05 0.05 0.04 0.04 0.04 0.04 0.05 0.06 0.07 0.06 0.07 0.09 0.10 0.09 0.08 0.06 0.04 0.02 0.02 0.02 0.02 0.03 0.05 0.05 0.05 0.06 0.06 0.04 0.02 0.01 0.01 0.01 0.01 0.01 0.01 0.02 0.03 0.03 0.04 0.03 0.02
0.03 0.03 0.04 0.05 0.04 0.04 0.04 0.04 0.05 0.05 0.05 0.05 0.05 0.07 0.09 0.09 0.09 0.07 0.04 0.03 0.01 0.02 0.02 0.03 0.04 0.05 0.05 0.05 0.06 0.05 0.03 0.02 0.01 0.01 0.01 0.01 0.01 0.01 0.02 0.03 0.03 0.03 0.03
0.03 0.03 0.03 0.04 0.04 0.04 0.03 0.03 0.05 0.04 0.03 0.03 0.04 0.05 0.06 0.08 0.08 0.08 0.06 0.04 0.02 0.02 0.02 0.02 0.03 0.04 0.04 0.05 0.06 0.05 0.03 0.03 0.02 0.02 0.02 0.02 0.02 0.02 0.02 0.02 0.03 0.03 0.03
0.02 0.03 0.03 0.03 0.04 0.04 0.04 0.03 0.04 0.04 0.03 0.03 0.03 0.04 0.04 0.06 0.07 0.07 0.07 0.05 0.04 0.02 0.03 0.03 0.03 0.04 0.04 0.04 0.05 0.04 0.03 0.03 0.03 0.02 0.02 0.02 0.02 0.02 0.02 0.02 0.02 0.02 0.02
0.02 0.02 0.02 0.03 0.04 0.04 0.04 0.04 0.05 0.05 0.04 0.03 0.03 0.04 0.04 0.05 0.07 0.07 0.06 0.05 0.04 0.04 0.03 0.03 0.03 0.04 0.04 0.04 0.03 0.02 0.02 0.03 0.03 0.03 0.02 0.02 0.01 0.01 0.01 0.02 0.02 0.02 0.02
0.02 0.02 0.02 0.03 0.03 0.04 0.04 0.04 0.04 0.05 0.04 0.04 0.04 0.04 0.05 0.06 0.05 0.05 0.05 0.05 0.04 0.04 0.04 0.04 0.03 0.04 0.04 0.03 0.03 0.02 0.02 0.02 0.02 0.02 0.02 0.02 0.01 0.01 0.02 0.02 0.02 0.02 0.01
0.02 0.02 0.02 0.02 0.03 0.03 0.03 0.03 0.04 0.04 0.04 0.04 0.05 0.05 0.06 0.05 0.05 0.06 0.05 0.04 0.04 0.04 0.04 0.03 0.04 0.05 0.04 0.04 0.04 0.04 0.04 0.04 0.04 0.03 0.02 0.02 0.01 0.01 0.02 0.03 0.03 0.03 0.03
0.03 0.02 0.02 0.02 0.02 0.03 0.03 0.03 0.03 0.04 0.04 0.04 0.05 0.05 0.05 0.06 0.07 0.06 0.05 0.04 0.03 0.04 0.04 0.04 0.03 0.04 0.04 0.04 0.04 0.05 0.05 0.06 0.06 0.06 0.05 0.03 0.03 0.02 0.02 0.03 0.04 0.04 0.03
0.04 0.02 0.02 0.02 0.02 0.02 0.02 0.02 0.03 0.04 0.04 0.05 0.05 0.05 0.06 0.07 0.06 0.06 0.07 0.05 0.05 0.05 0.04 0.04 0.04 0.04 0.04 0.04 0.04 0.04 0.04 0.04 0.05 0.06 0.06 0.06 0.05 0.04 0.04 0.03 0.03 0.03 0.02
0.06 0.04 0.03 0.03 0.02 0.02 0.02 0.03 0.03 0.04 0.05 0.05 0.05 0.06 0.06 0.06 0.06 0.06 0.06 0.06 0.06 0.06 0.05 0.06 0.06 0.05 0.05 0.04 0.04 0.04 0.04 0.04 0.04 0.05 0.06 0.06 0.06 0.05 0.04 0.03 0.03 0.03 0.03
0.05 0.05 0.04 0.03 0.03 0.03 0.03 0.03 0.03 0.04 0.04 0.04 0.05 0.05 0.06 0.07 0.07 0.06 0.05 0.05 0.05 0.06 0.06 0.06 0.07 0.06 0.06 0.06 0.06 0.05 0.05 0.05 0.05 0.05 0.05 0.06 0.05 0.04 0.03 0.03 0.03 0.03 0.02
0.05 0.05 0.05 0.05 0.04 0.04 0.04 0.04 0.04 0.04 0.04 0.03 0.03 0.04 0.05 0.07 0.07 0.06 0.04 0.04 0.05 0.05 0.05 0.06 0.06 0.05 0.06 0.06 0.06 0.05 0.05 0.05 0.06 0.06 0.06 0.05 0.05 0.04 0.03 0.03 0.03 0.02 0.02
0.04 0.05 0.05 0.06 0.05 0.04 0.04 0.04 0.04 0.04 0.03 0.03 0.03 0.03 0.03 0.04 0.05 0.05 0.04 0.03 0.03 0.03 0.04 0.05 0.05 0.05 0.05 0.05 0.05 0.05 0.05 0.05 0.05 0.05 0.05 0.05 0.05 0.04 0.03 0.03 0.03 0.03 0.03
0.03 0.04 0.04 0.04 0.04 0.04 0.04 0.04 0.04 0.04 0.04 0.04 0.03 0.03 0.03 0.04 0.03 0.03 0.03 0.03 0.02 0.03 0.04 0.05 0.05 0.05 0.05 0.05 0.05 0.05 0.05 0.05 0.05 0.04 0.04 0.04 0.04 0.03 0.03 0.02 0.03 0.03 0.03
0.03 0.03 0.04 0.04 0.04 0.04 0.04 0.05 0.06 0.05 0.05 0.05 0.04 0.04 0.05 0.05 0.05 0.04 0.04 0.04 0.04 0.04 0.04 0.05 0.04 0.04 0.04 0.03 0.03 0.03 0.03 0.03 0.04 0.04 0.03 0.03 0.02 0.02 0.02 0.02 0.02 0.02 0.03
0.04 0.04 0.05 0.05 0.04 0.04 0.04 0.04 0.05 0.05 0.06 0.05 0.04 0.04 0.05 0.05 0.04 0.03 0.04 0.04 0.04 0.04 0.04 0.04 0.03 0.03 0.03 0.03 0.02 0.02 0.02 0.02 0.03 0.03 0.02 0.02 0.02 0.02 0.02 0.02 0.02 0.02 0.02
0.05 0.05 0.05 0.06 0.06 0.06 0.05 0.04 0.04 0.04 0.04 0.04 0.03 0.03 0.04 0.04 0.03 0.03 0.03 0.03 0.03 0.03 0.03 0.03 0.03 0.03 0.03 0.03 0.03 0.02 0.02 0.02 0.02 0.02 0.02 0.02 0.02 0.02 0.02 0.02 0.01 0.01 0.01
0.05 0.05 0.05 0.06 0.06 0.07 0.07 0.06 0.05 0.04 0.04 0.03 0.02 0.02 0.03 0.03 0.03 0.02 0.02 0.02 0.01 0.02 0.02 0.02 0.02 0.03 0.03 0.03 0.03 0.03 0.03 0.03 0.02 0.02 0.02 0.01 0.01 0.01 0.02 0.01 0.01 0.02 0.02
0.04 0.05 0.06 0.05 0.06 0.06 0.06 0.06 0.06 0.05 0.04 0.03 0.02 0.02 0.02 0.02 0.02 0.02 0.01 0.01 0.01 0.01 0.01 0.01 0.02 0.02 0.03 0.03 0.03 0.03 0.03 0.03 0.02 0.02 0.02 0.02 0.01 0.01 0.01 0.01 0.01 0.01 0.02
0.04 0.04 0.05 0.05 0.05 0.06 0.05 0.04 0.05 0.05 0.05 0.04 0.04 0.03 0.03 0.03 0.02 0.01 0.01 0.01 0.01 0.01 0.01 0.01 0.02 0.02 0.03 0.03 0.03 0.03 0.03 0.02 0.02 0.02 0.02 0.02 0.02 0.02 0.01 0.01 0.01 0.02 0.02
0.04 0.04 0.04 0.04 0.05 0.05 0.06 0.05 0.05 0.05 0.05 0.05 0.05 0.05 0.05 0.04 0.03 0.02 0.02 0.02 0.01 0.01 0.01 0.01 0.02 0.02 0.02 0.02 0.02 0.02 0.02 0.02 0.02 0.02 0.02 0.02 0.02 0.02 0.02 0.02 0.02 0.02 0.02
0.03 0.03 0.04 0.04 0.04 0.05 0.05 0.06 0.06 0.05 0.05 0.04 0.04 0.04 0.04 0.04 0.03 0.03 0.02 0.02 0.02 0.02 0.01 0.01 0.01 0.01 0.01 0.02 0.02 0.02 0.02 0.02 0.02 0.01 0.02 0.02 0.02 0.02 0.02 0.02 0.02 0.02 0.02
0.02 0.02 0.03 0.03 0.04 0.04 0.04 0.04 0.05 0.05 0.05 0.05 0.04 0.03 0.03 0.03 0.03 0.03 0.03 0.03 0.03 0.03 0.03 0.02 0.02 0.02 0.02 0.01 0.01 0.01 0.01 0.01 0.02 0.02 0.02 0.02 0.02 0.02 0.02 0.02 0.02 0.02 0.02
0.01 0.02 0.02 0.02 0.03 0.03 0.03 0.04 0.04 0.04 0.05 0.05 0.05 0.04 0.04 0.03 0.03 0.04 0.04 0.04 0.04 0.04 0.04 0.04 0.04 0.04 0.03 0.03 0.02 0.02 0.02 0.02 0.02 0.02 0.03 0.03 0.03 0.03 0.02 0.02 0.02 0.03 0.03
0.01 0.01 0.01 0.02 0.02 0.02 0.03 0.03 0.03 0.03 0.03 0.04 0.04 0.04 0.04 0.04 0.04 0.04 0.04 0.03 0.03 0.03 0.03 0.04 0.04 0.04 0.04 0.03 0.03 0.03 0.03 0.02 0.03 0.03 0.03 0.04 0.04 0.03 0.03 0.03 0.03 0.03 0.03
MSLP
1009.72 1010.96 1012.42 1013.99 1015.57 1017.11 1018.53 1019.83 1020.98 1022.01 1022.93 1023.79 1024.61 1025.43 1026.27 1027.12 1027.98 1028.81 1029.59 1030.29 1030.88 1031.36 1031.74 1032.06 1032.36 1032.71 1033.14 1033.72 1034.45 1035.33 1036.31 1037.33 1038.34 1039.26 1040.03 1040.60 1040.99 1041.20 1041.26 1041.23 1041.15 1041.07 1041.02
1009.81 1010.82 1012.11 1013.57 1015.13 1016.67 1018.15 1019.50 1020.71 1021.78 1022.73 1023.58 1024.38 1025.18 1025.99 1026.84 1027.71 1028.59 1029.44 1030.22 1030.90 1031.46 1031.90 1032.24 1032.54 1032.84 1033.21 1033.70 1034.33 1035.12 1036.03 1037.03 1038.03 1038.99 1039.83 1040.51 1041.01 1041.35 1041.55 1041.65 1041.69 1041.71 1041.74
1010.12 1010.86 1011.93 1013.24 1014.71 1016.24 1017.73 1019.13 1020.40 1021.51 1022.47 1023.33 1024.11 1024.86 1025.64 1026.46 1027.32 1028.23 1029.12 1029.98 1030.75 1031.40 1031.93 1032.34 1032.68 1032.99 1033.33 1033.77 1034.33 1035.03 1035.87 1036.79 1037.76 1038.70 1039.56 1040.31 1040.90 1041.35 1041.67 1041.90 1042.07 1042.22 1042.36
1010.60 1011.03 1011.84 1012.97 1014.31 1015.78 1017.27 1018.69 1020.00 1021.15 1022.14 1023.00 1023.76 1024.48 1025.21 1025.99 1026.83 1027.73 1028.66 1029.57 1030.43 1031.18 1031.82 1032.33 1032.74 1033.10 1033.45 1033.86 1034.37 1034.99 1035.74 1036.58 1037.48 1038.38 1039.23 1039.99 1040.63 1041.17 1041.60 1041.95 1042.26 1042.54 1042.82
1011.13 1011.26 1011.79 1012.70 1013.89 1015.26 1016.72 1018.15 1019.50 1020.69 1021.72 1022.59 1023.35 1024.04 1024.73 1025.46 1026.26 1027.14 1028.08 1029.04 1029.96 1030.81 1031.55 1032.17 1032.68 1033.11 1033.50 1033.91 1034.38 1034.94 1035.60 1036.35 1037.16 1037.99 1038.80 1039.55 1040.23 1040.82 1041.34 1041.81 1042.24 1042.66 1043.07
1011.63 1011.45 1011.71 1012.39 1013.41 1014.67 1016.08 1017.52 1018.89 1020.13 1021.20 1022.10 1022.87 1023.55 1024.20 1024.89 1025.66 1026.51 1027.44 1028.42 1029.39 1030.32 1031.16 1031.88 1032.48 1032.99 1033.43 1033.86 1034.31 1034.83 1035.42 1036.08 1036.81 1037.56 1038.32 1039.05 1039.73 1040.36 1040.94 1041.50 1042.04 1042.58 1043.11
1011.99 1011.55 1011.56 1012.01 1012.86 1014.02 1015.36 1016.79 1018.18 1019.47 1020.59 1021.54 1022.34 1023.02 1023.67 1024.33 1025.06 1025.87 1026.79 1027.77 1028.77 1029.75 1030.66 1031.46 1032.15 1032.73 1033.23 1033.69 1034.15 1034.63 1035.18 1035.78 1036.44 1037.13 1037.84 1038.54 1039.21 1039.86 1040.49 1041.11 1041.73 1042.35 1042.99
1012.21 1011.53 1011.32 1011.58 1012.27 1013.31 1014.60 1016.00 1017.42 1018.75 1019.93 1020.94 1021.77 1022.48 1023.13 1023.78 1024.48 1025.27 1026.15 1027.12 1028.13 1029.13 1030.09 1030.95 1031.71 1032.36 1032.92 1033.41 1033.89 1034.38 1034.91 1035.48 1036.10 1036.76 1037.43 1038.11 1038.78 1039.43 1040.08 1040.73 1041.39 1042.07 1042.76
1012.29 1011.44 1011.05 1011.14 1011.69 1012.62 1013.84 1015.22 1016.64 1018.01 1019.24 1020.30 1021.19 1021.94 1022.61 1023.26 1023.94 1024.70 1025.56 1026.50 1027.49 1028.50 1029.48 1030.38 1031.19 1031.90 1032.52 1033.07 1033.59 1034.11 1034.66 1035.24 1035.86 1036.51 1037.18 1037.85 1038.51 1039.17 1039.82 1040.47 1041.13 1041.82 1042.52
1012.32 1011.35 1010.82 1010.77 1011.18 1012.01 1013.15 1014.48 1015.89 1017.27 1018.54 1019.65 1020.58 1021.38 1022.07 1022.73 1023.41 1024.16 1024.99 1025.90 1026.88 1027.88 1028.86 1029.79 1030.64 1031.41 1032.09 1032.70 1033.29 1033.87 1034.46 1035.09 1035.74 1036.42 1037.11 1037.79 1038.46 1039.11 1039.74 1040.37 1041.00 1041.66 1042.33
1012.39 1011.33 1010.70 1010.53 1010.82 1011.53 1012.57 1013.83 1015.20 1016.56 1017.84 1018.98 1019.95 1020.78 1021.51 1022.19 1022.87 1023.61 1024.42 1025.32 1026.28 1027.27 1028.26 1029.21 1030.10 1030.91 1031.66 1032.35 1033.01 1033.67 1034.35 1035.04 1035.76 1036.49 1037.22 1037.93 1038.61 1039.25 1039.86 1040.44 1041.03 1041.62 1042.24
1012.57 1011.47 1010.75 1010.46 1010.63 1011.21 1012.13 1013.29 1014.58 1015.89 1017.14 1018.27 1019.26 1020.12 1020.87 1021.58 1022.28 1023.03 1023.84 1024.73 1025.68 1026.67 1027.67 1028.64 1029.57 1030.43 1031.25 1032.02 1032.77 1033.52 1034.28 1035.06 1035.86 1036.66 1037.44 1038.19 1038.88 1039.52 1040.11 1040.66 1041.19 1041.71 1042.26
1012.91 1011.77 1010.97 1010.57 1010.61 1011.04 1011.81 1012.83 1014.00 1015.23 1016.42 1017.52 1018.50 1019.37 1020.15 1020.89 1021.62 1022.38 1023.21 1024.10 1025.06 1026.06 1027.08 1028.07 1029.04 1029.96 1030.84 1031.69 1032.53 1033.36 1034.21 1035.08 1035.95 1036.82 1037.66 1038.45 1039.18 1039.83 1040.40 1040.92 1041.41 1041.87 1042.35
1013.38 1012.20 1011.33 1010.82 1010.71 1010.98 1011.58 1012.43 1013.46 1014.56 1015.66 1016.71 1017.66 1018.53 1019.33 1020.09 1020.85 1021.65 1022.50 1023.42 1024.40 1025.43 1026.47 1027.50 1028.50 1029.47 1030.41 1031.33 1032.23 1033.14 1034.07 1035.00 1035.95 1036.88 1037.78 1038.61 1039.37 1040.05 1040.63 1041.15 1041.61 1042.04 1042.48
1013.92 1012.70 1011.75 1011.12 1010.86 1010.96 1011.38 1012.05 1012.91 1013.87 1014.86 1015.83 1016.75 1017.60 1018.41 1019.20 1020.00 1020.83 1021.73 1022.68 1023.69 1024.75 1025.81 1026.88 1027.92 1028.93 1029.92 1030.88 1031.84 1032.80 1033.77 1034.76 1035.75 1036.73 1037.67 1038.56 1039.36 1040.07 1040.70 1041.23 1041.71 1042.15 1042.58
1014.42 1013.17 1012.15 1011.41 1011.01 1010.94 1011.17 1011.67 1012.35 1013.17 1014.04 1014.93 1015.79 1016.63 1017.45 1018.26 1019.09 1019.97 1020.90 1021.89 1022.93 1024.01 1025.11 1026.20 1027.27 1028.31 1029.32 1030.31 1031.29 1032.28 1033.27 1034.29 1035.31 1036.32 1037.30 1038.23 1039.08 1039.85 1040.53 1041.13 1041.66 1042.14 1042.60
1014.83 1013.55 1012.47 1011.64 1011.11 1010.89 1010.97 1011.29 1011.82 1012.49 1013.25 1014.06 1014.87 1015.68 1016.50 1017.32 1018.18 1019.09 1020.05 1021.07 1022.14 1023.24 1024.36 1025.47 1026.55 1027.60 1028.62 1029.62 1030.60 1031.59 1032.59 1033.60 1034.63 1035.66 1036.66 1037.63 1038.55 1039.39 1040.14 1040.82 1041.43 1041.99 1042.51
1015.12 1013.84 1012.72 1011.83 1011.20 1010.86 1010.80 1010.99 1011.38 1011.93 1012.59 1013.31 1014.07 1014.85 1015.65 1016.48 1017.35 1018.27 1019.24 1020.28 1021.36 1022.47 1023.59 1024.69 1025.78 1026.83 1027.84 1028.83 1029.81 1030.78 1031.76 1032.76 1033.78 1034.81 1035.83 1036.84 1037.80 1038.71 1039.56 1040.33 1041.04 1041.69 1042.29
1015.35 1014.08 1012.96 1012.03 1011.35 1010.93 1010.76 1010.84 1011.13 1011.57 1012.13 1012.78 1013.48 1014.22 1015.00 1015.81 1016.66 1017.57 1018.54 1019.56 1020.63 1021.73 1022.83 1023.93 1025.00 1026.03 1027.03 1028.00 1028.96 1029.91 1030.87 1031.84 1032.85 1033.87 1034.90 1035.93 1036.95 1037.92 1038.85 1039.71 1040.52 1041.27 1041.96
1015.60 1014.39 1013.29 1012.36 1011.66 1011.19 1010.96 1010.96 1011.16 1011.51 1011.99 1012.56 1013.20 1013.89 1014.61 1015.38 1016.20 1017.07 1018.00 1018.99 1020.02 1021.08 1022.15 1023.22 1024.26 1025.28 1026.26 1027.21 1028.14 1029.06 1029.99 1030.95 1031.93 1032.93 1033.97 1035.01 1036.05 1037.08 1038.07 1039.01 1039.91 1040.74 1041.51
1016.02 1014.87 1013.83 1012.94 1012.24 1011.75 1011.49 1011.43 1011.55 1011.83 1012.23 1012.72 1013.28 1013.89 1014.55 1015.25 1016.00 1016.81 1017.68 1018.60 1019.57 1020.57 1021.60 1022.62 1023.63 1024.62 1025.58 1026.50 1027.41 1028.31 1029.22 1030.15 1031.10 1032.09 1033.10 1034.15 1035.20 1036.25 1037.28 1038.27 1039.23 1040.13 1040.96
1016.70 1015.64 1014.67 1013.83 1013.16 1012.68 1012.39 1012.28 1012.34 1012.55 1012.86 1013.27 1013.74 1014.26 1014.83 1015.44 1016.10 1016.82 1017.59 1018.43 1019.32 1020.25 1021.21 1022.18 1023.15 1024.10 1025.03 1025.94 1026.83 1027.71 1028.59 1029.48 1030.40 1031.36 1032.35 1033.37 1034.41 1035.46 1036.50 1037.52 1038.51 1039.45 1040.34
1017.69 1016.73 1015.85 1015.07 1014.44 1013.96 1013.65 1013.51 1013.51 1013.63 1013.86 1014.17 1014.54 1014.96 1015.42 1015.92 1016.48 1017.09 1017.76 1018.50 1019.29 1020.14 1021.02 1021.93 1022.84 1023.75 1024.65 1025.53 1026.39 1027.24 1028.09 1028.96 1029.84 1030.75 1031.70 1032.68 1033.69 1034.72 1035.75 1036.77 1037.76 1038.72 1039.63
1018.95 1018.10 1017.30 1016.58 1015.99 1015.52 1015.20 1015.01 1014.95 1015.00 1015.13 1015.34 1015.61 1015.91 1016.26 1016.66 1017.10 1017.59 1018.15 1018.78 1019.47 1020.22 1021.02 1021.85 1022.71 1023.56 1024.41 1025.25 1026.08 1026.89 1027.71 1028.53 1029.37 1030.23 1031.13 1032.06 1033.02 1034.00 1035.00 1036.00 1036.99 1037.95 1038.87
1020.39 1019.63 1018.90 1018.25 1017.68 1017.23 1016.89 1016.66 1016.54 1016.51 1016.56 1016.68 1016.84 1017.04 1017.28 1017.57 1017.90 1018.28 1018.73 1019.25 1019.83 1020.48 1021.19 1021.93 1022.71 1023.50 1024.29 1025.07 1025.85 1026.62 1027.38 1028.15 1028.94 1029.75 1030.59 1031.46 1032.37 1033.31 1034.26 1035.23 1036.20 1037.15 1038.08
1021.85 1021.18 1020.52 1019.92 1019.39 1018.94 1018.59 1018.33 1018.15 1018.06 1018.03 1018.06 1018.13 1018.24 1018.39 1018.57 1018.80 1019.09 1019.43 1019.85 1020.33 1020.87 1021.48 1022.13 1022.81 1023.52 1024.23 1024.95 1025.66 1026.37 1027.07 1027.78 1028.51 1029.26 1030.04 1030.86 1031.72 1032.61 1033.53 1034.47 1035.42 1036.36 1037.29
Thickness
5456 5456 5457 5458 5459 5459 5459 5460 5461 5462 5463 5464 5464 5465 5465 5467 5466 5467 5468 5468 5469 5470 5470 5471 5472 5472 5472 5472 5472 5472 5471 5471 5471 5472 5470 5470 5470 5470 5470 5470 5469 5469 5469
5444 5445 5446 5446 5446 5447 5449 5450 5450 5452 5452 5453 5453 5454 5454 5455 5456 5456 5456 5457 5458 5459 5460 5460 5462 5462 5462 5462 5462 5462 5461 5460 5460 5460 5459 5459 5458 5458 5458 5458 5458 5457 5457
5432 5433 5434 5434 5435 5436 5437 5439 5439 5440 5441 5442 5442 5442 5443 5444 5445 5445 5445 5446 5448 5449 5449 5450 5451 5452 5452 5452 5452 5452 5451 5450 5449 5449 5449 5448 5446 5446 5445 5446 5446 5445 5445
5420 5421 5422 5423 5424 5425 5426 5427 5427 5429 5429 5430 5431 5431 5430 5431 5432 5433 5434 5434 5435 5437 5438 5439 5441 5442 5443 5442 5442 5442 5440 5438 5437 5437 5436 5435 5434 5433 5433 5433 5433 5432 5432
5409 5410 5411 5412 5413 5413 5414 5414 5415 5416 5417 5418 5418 5417 5417 5418 5420 5421 5422 5422 5423 5425 5427 5428 5430 5431 5432 5432 5432 5431 5429 5428 5426 5425 5424 5423 5422 5420 5421 5421 5420 5419 5418
5398 5399 5400 5401 5401 5401 5401 5401 5402 5403 5404 5404 5404 5404 5405 5406 5408 5410 5411 5411 5411 5413 5415 5416 5418 5419 5419 5420 5421 5421 5420 5418 5417 5415 5414 5414 5413 5411 5410 5408 5406 5404 5405
5386 5388 5389 5389 5389 5389 5388 5388 5389 5389 5390 5391 5392 5392 5393 5394 5396 5398 5400 5399 5400 5401 5403 5404 5406 5407 5406 5407 5408 5408 5408 5408 5408 5406 5405 5405 5404 5402 5398 5396 5394 5393 5394
5374 5375 5376 5377 5377 5377 5376 5376 5377 5377 5378 5379 5380 5380 5381 5383 5384 5386 5387 5387 5387 5388 5391 5393 5394 5394 5395 5396 5396 5396 5396 5395 5395 5394 5394 5394 5392 5390 5388 5386 5383 5379 5378
5361 5363 5364 5364 5364 5364 5364 5364 5365 5365 5366 5367 5368 5368 5369 5370 5372 5373 5374 5374 5375 5377 5378 5380 5382 5382 5383 5384 5384 5384 5383 5382 5381 5381 5381 5381 5379 5377 5375 5370 5367 5365 5365
5350 5351 5351 5351 5352 5352 5352 5352 5352 5353 5354 5354 5355 5355 5357 5358 5360 5361 5362 5363 5364 5366 5366 5368 5370 5371 5372 5372 5371 5371 5371 5370 5368 5368 5368 5367 5365 5364 5362 5360 5357 5354 5352
5337 5338 5339 5339 5339 5340 5340 5340 5339 5340 5340 5341 5342 5343 5344 5347 5348 5350 5350 5352 5353 5354 5355 5357 5358 5359 5360 5361 5360 5359 5360 5358 5357 5356 5355 5354 5352 5351 5348 5347 5345 5343 5341
5324 5324 5325 5326 5326 5327 5326 5326 5326 5326 5326 5327 5328 5330 5331 5333 5335 5337 5339 5341 5342 5342 5344 5345 5346 5348 5349 5349 5348 5348 5347 5346 5344 5343 5342 5341 5340 5338 5336 5334 5332 5330 5329
5310 5311 5312 5313 5313 5314 5313 5313 5313 5313 5314 5315 5316 5317 5319 5321 5323 5325 5327 5329 5330 5330 5331 5333 5335 5336 5336 5336 5336 5335 5334 5332 5331 5330 5329 5328 5327 5325 5322 5320 5318 5316 5315
5296 5297 5298 5299 5300 5300 5301 5301 5301 5301 5302 5303 5304 5305 5307 5308 5310 5312 5313 5314 5316 5317 5318 5320 5321 5322 5322 5322 5321 5321 5320 5320 5319 5318 5316 5314 5312 5310 5308 5306 5304 5303 5301
5283 5284 5285 5286 5286 5287 5288 5289 5289 5290 5291 5291 5293 5294 5295 5298 5300 5302 5302 5303 5303 5304 5304 5305 5307 5307 5307 5307 5307 5307 5306 5305 5304 5304 5302 5300 5298 5296 5294 5293 5291 5290 5288
5269 5270 5271 5272 5274 5275 5276 5276 5277 5278 5279 5281 5282 5283 5285 5287 5289 5290 5292 5293 5293 5293 5292 5292 5293 5294 5294 5294 5293 5293 5292 5291 5290 5289 5288 5286 5285 5283 5281 5279 5278 5276 5275
5255 5257 5258 5260 5261 5262 5263 5264 5265 5266 5267 5269 5270 5272 5273 5275 5277 5278 5279 5280 5280 5280 5279 5279 5280 5280 5281 5280 5279 5279 5278 5277 5276 5275 5274 5272 5271 5270 5268 5266 5265 5263 5262
5242 5244 5246 5246 5248 5249 5250 5251 5252 5253 5254 5255 5257 5258 5260 5262 5264 5265 5266 5265 5265 5265 5265 5265 5265 5266 5266 5265 5265 5264 5264 5263 5262 5261 5260 5258 5257 5256 5255 5253 5252 5250 5249
5229 5230 5232 5233 5234 5236 5237 5238 5238 5239 5241 5241 5242 5243 5245 5247 5250 5251 5252 5251 5251 5251 5251 5251 5251 5251 5251 5251 5250 5250 5249 5249 5248 5246 5246 5245 5244 5243 5242 5241 5239 5239 5237
5216 5218 5220 5220 5221 5223 5224 5225 5225 5226 5228 5229 5229 5230 5231 5233 5234 5235 5236 5236 5237 5237 5237 5237 5238 5238 5237 5237 5236 5236 5235 5234 5234 5233 5232 5231 5230 5230 5229 5228 5227 5226 5225
5203 5205 5207 5208 5208 5209 5211 5212 5212 5213 5214 5215 5216 5217 5220 5221 5221 5222 5222 5223 5223 5224 5224 5224 5224 5224 5224 5223 5222 5221 5221 5220 5220 5219 5219 5218 5217 5216 5216 5215 5215 5214 5213
5190 5191 5192 5193 5194 5195 5197 5198 5199 5200 5201 5202 5203 5204 5207 5208 5208 5208 5209 5209 5210 5211 5211 5211 5211 5211 5211 5210 5210 5209 5208 5207 5207 5206 5206 5205 5204 5204 5204 5204 5203 5203 5202
5177 5178 5179 5180 5181 5183 5184 5184 5185 5186 5187 5188 5189 5191 5192 5193 5194 5195 5196 5196 5197 5198 5198 5198 5199 5199 5198 5198 5198 5198 5198 5198 5197 5196 5195 5194 5194 5193 5193 5193 5192 5192 5191
5164 5165 5166 5167 5168 5168 5169 5170 5172 5173 5174 5175 5176 5178 5179 5179 5180 5182 5183 5183 5184 5186 5186 5187 5187 5188 5187 5187 5187 5187 5187 5188 5187 5186 5186 5185 5185 5184 5183 5182 5182 5182 5182
5151 5152 5153 5154 5154 5155 5156 5158 5159 5160 5161 5162 5163 5165 5165 5166 5167 5169 5170 5171 5172 5173 5174 5175 5175 5176 5177 5177 5177 5178 5178 5178 5178 5178 5177 5177 5176 5176 5175 5174 5173 5173 5172
5137 5138 5139 5141 5142 5143 5144 5145 5146 5147 5148 5149 5150 5151 5152 5153 5155 5156 5157 5158 5160 5162 5163 5164 5165 5166 5167 5168 5169 5169 5170 5170 5171 5171 5170 5169 5169 5168 5167 5166 5165 5165 5163